[[{"header":{"parameterUnit":"m.s-1","parameterCategory":1,"la1":30.2991,"la2":30.254,"lo1":-89.0895,"lo2":-89.0444,"dy":0.0017,"dx":0.0017,"nx":28,"ny":28,"refTime":"2023-08-01T21:00:00:Z","depth":0,"parameterNumber":2,"parameterNumberName":"U-component_of_WINDS"},"data":[0,0,0,0,0,0,0,0,0,0,0,0,0,0,0,0,0,0,0,0,0,0,0,0,0,0,0,0,0,0,0,0,0,0,0,0,0,0,0,0,0,0,0,0,0,0,0,0,0,0,0,0,0,0,0,0,0,0,1.9773,1.9774,0,1.9793,1.9793,1.9793,1.9742,1.9741,1.9739,1.9738,1.9757,1.9759,1.9761,0,0,0,0,0,0,0,0,0,0,0,0,0,1.9693,1.9695,1.9773,1.9774,1.9774,1.9793,1.9793,1.9793,1.9742,1.9741,1.9739,1.9737,1.9757,1.9759,1.9761,0,0,0,0,0,0,0,0,0,0,0,0,0,1.9722,1.9696,1.9773,1.9751,1.9749,1.9793,1.9793,1.9793,1.9743,1.974,1.9738,1.9736,1.9756,1.9759,1.9762,1.9828,0,0,1.9771,1.9772,0,0,0,0,0,0,0,0,1.972,1.9725,1.9754,1.9753,1.9751,1.9763,1.9772,1.9805,1.9743,1.9745,1.9737,1.9735,1.9761,1.9763,1.9772,1.9829,1.9829,1.9771,1.9773,1.9774,1.9775,0,0,0,0,0,0,0,1.9718,1.9724,1.9781,1.9754,1.9752,1.974,1.9741,1.9778,1.9766,1.9745,1.9741,1.9744,1.9759,1.9769,1.9772,1.983,1.9771,1.9774,1.9775,1.9777,1.9942,1.9944,0,0,0,0,0,0,1.9719,1.9722,1.978,1.9782,1.9729,1.9743,1.9745,1.9761,1.9766,1.9764,1.9746,1.9742,1.9765,1.9769,1.9773,1.985,1.9774,1.9777,1.9779,1.9939,1.9942,1.9945,0,0,0,0,0,0,1.9718,1.9725,1.978,1.9751,1.9757,1.9747,1.9766,1.9763,1.9772,1.9767,1.9764,1.9758,1.9764,1.9768,1.9814,1.985,1.9778,1.9781,1.9936,1.994,1.9944,2.0007,0,0,0,0,0,0,1.9716,1.9725,1.975,1.9752,1.9759,1.9821,1.9768,1.9765,1.9778,1.9772,1.9777,1.9776,1.9762,1.981,1.9817,1.9853,1.9783,1.9933,1.9938,1.9942,2.0001,2.0012,2.0021,0,0,0,0,0,1.9713,1.9767,1.9751,1.9758,1.979,1.9823,1.9827,1.981,1.9781,1.9806,1.9802,1.9776,1.9845,1.9815,1.9823,1.986,1.993,1.9936,1.9942,1.9997,2.001,2.0021,0,0,0,0,0,0,1.9769,1.9766,1.9749,1.9805,1.9815,1.9815,1.9846,1.9825,1.9843,1.9837,1.9815,1.9816,1.9867,1.9868,1.9835,1.9925,1.9883,1.9891,1.9922,1.9934,1.9944,1.9943,1.9786,0,0,0,0,0,1.9787,1.9815,1.9811,1.9861,1.9867,1.9856,1.987,1.9856,1.9865,1.9869,1.9868,1.9878,1.9902,1.9918,1.994,2.0001,2.0002,2.0031,2.0041,2.0049,2.0056,2.0089,2.0102,1.9964,1.9964,1.9964,0,0,1.9826,1.9829,1.9847,1.9872,1.9878,1.9907,1.9859,1.9892,1.9913,1.9873,1.9917,1.9917,1.9927,1.9981,2.0004,1.9983,2.0094,2.0057,2.0063,2.0066,2.0096,2.0109,2.0121,1.9968,1.9967,1.9967,0,0,1.9912,1.9917,1.9959,1.9966,1.9975,1.9967,1.9978,1.9981,1.9979,2.0023,1.9993,2.0018,2.006,2.0068,2.0078,2.0168,2.0144,2.0176,2.0228,2.026,2.0271,2.0281,2.0313,2.0325,2.0182,2.0183,2.0183,0,1.9959,2.0002,1.9983,2.0018,2.003,1.9995,2.0037,2.0045,2.0061,2.0071,2.0047,2.0099,2.0103,2.0158,2.018,2.0189,2.02,2.0175,2.0271,2.0281,2.0289,2.0319,2.0332,2.0186,2.0186,2.0185,2.0185,0,2.006,2.009,2.0122,2.0139,2.0155,2.0193,2.018,2.0198,2.0183,2.0178,2.0223,2.0226,2.0249,2.0261,2.0246,2.0314,2.0301,2.0275,2.0232,2.0306,2.0334,2.0346,2.0192,2.019,2.0189,2.0188,0,0,2.0181,2.0187,2.0199,2.0206,2.0215,2.0237,2.0274,2.0296,2.0312,2.0325,2.0355,2.0392,2.0367,2.0378,2.0365,2.0393,2.0464,2.0363,2.0363,2.0382,2.054,2.0559,2.0573,2.0449,2.0451,2.0452,2.0539,0,2.0266,2.0329,2.0313,2.0376,2.0404,2.0372,2.0404,2.0413,2.0409,2.0432,2.0428,2.0454,2.042,2.0426,2.0453,2.045,2.0495,2.0443,2.0477,2.0478,2.0475,2.0588,2.0609,2.069,2.055,2.0551,2.0553,0,2.0373,2.039,2.0456,2.046,2.0471,2.05,2.0519,2.0541,2.055,2.0546,2.0558,2.0539,2.0576,2.0533,2.0584,2.0549,2.0561,2.0562,2.0565,2.0567,2.052,2.0593,2.0715,2.0728,2.057,2.0569,2.0567,0,2.0455,2.0494,2.0539,2.0546,2.0552,2.0573,2.0576,2.0583,2.0597,2.0614,2.0623,2.0643,2.0655,2.0671,2.0658,2.0628,2.0711,2.0667,2.0708,2.0708,2.0726,2.0726,2.0853,2.0735,2.0735,2.0735,2.0734,0,2.0552,2.0593,2.0576,2.0603,2.0649,2.063,2.0676,2.0676,2.0682,2.0709,2.0682,2.0708,2.0689,2.0714,2.0704,2.0747,2.0752,2.075,2.0746,2.0752,2.0752,2.076,2.0754,2.0738,2.0737,2.0737,2.0736,0,2.0651,2.0641,2.0687,2.0689,2.069,2.0724,2.0725,2.0751,2.0745,2.078,2.0787,2.0778,2.0805,2.0794,2.0823,2.0816,2.0872,2.0861,2.0868,2.0866,2.0907,2.0904,2.1044,2.1061,2.0932,2.0934,2.0935,0,2.0713,2.0745,2.075,2.0766,2.0771,2.0797,2.0811,2.0794,2.081,2.0823,2.0847,2.0872,2.0891,2.0936,2.0933,2.0955,2.0944,2.0992,2.0948,2.0952,2.0945,2.0944,2.0947,2.1001,2.1002,2.1004,2.1005,0,2.0825,2.0819,2.084,2.086,2.0878,2.0893,2.0906,2.0921,2.0904,2.0923,2.0951,2.0966,2.0995,2.102,2.104,2.1043,2.1022,2.1019,2.1029,2.1035,2.1038,2.1037,2.0893,2.1016,2.1014,2.1014,2.1013,2.1013,2.0908,2.0934,2.0942,2.0967,2.0975,2.0987,2.1011,2.1009,2.1031,2.1054,2.1042,2.1075,2.1083,2.1107,2.1114,2.1138,2.112,2.1135,2.1139,2.1143,2.1149,2.1035,2.1142,2.1142,2.1141,2.1141,2.1141,0,2.1018,2.1022,2.1045,2.1063,2.1083,2.1061,2.1074,2.1092,2.1121,2.113,2.115,2.1181,2.1206,2.1204,2.1227,2.1247,2.1238,2.1253,2.1252,2.1253,2.1164,2.1153,2.1261,2.1261,2.1261,2.126,2.126,2.126,2.1078,2.1122,2.1116,2.1163,2.1166,2.1197,2.1207,2.1218,2.1226,2.1262,2.1282,2.1281,2.1286,2.1309,2.1331,2.1329,2.1339,2.1359,2.1354,2.1271,2.1259,2.1248,2.1237,2.1361,2.1361,2.1441,2.1441,2.1442]},{"header":{"parameterUnit":"m.s-1","parameterCategory":1,"la1":30.2991,"la2":30.254,"lo1":-89.0895,"lo2":-89.0444,"dy":0.0017,"dx":0.0017,"nx":28,"ny":28,"refTime":"2023-08-01T21:00:00:Z","depth":0,"parameterNumber":3,"parameterNumberName":"V-component_of_WINDS"},"data":[0,0,0,0,0,0,0,0,0,0,0,0,0,0,0,0,0,0,0,0,0,0,0,0,0,0,0,0,0,0,0,0,0,0,0,0,0,0,0,0,0,0,0,0,0,0,0,0,0,0,0,0,0,0,0,0,0,0,-0.782,-0.782,0,-0.7834,-0.7835,-0.7835,-0.7826,-0.7826,-0.7825,-0.7825,-0.784,-0.7841,-0.7842,0,0,0,0,0,0,0,0,0,0,0,0,0,-0.7784,-0.7785,-0.782,-0.782,-0.782,-0.7834,-0.7835,-0.7835,-0.7826,-0.7826,-0.7825,-0.7825,-0.784,-0.7841,-0.7842,0,0,0,0,0,0,0,0,0,0,0,0,0,-0.7799,-0.7785,-0.782,-0.7817,-0.7817,-0.7834,-0.7835,-0.7835,-0.7826,-0.7825,-0.7825,-0.7824,-0.7839,-0.7841,-0.7842,-0.7862,0,0,-0.7846,-0.7846,0,0,0,0,0,0,0,0,-0.7798,-0.7801,-0.7817,-0.7818,-0.7817,-0.7828,-0.7828,-0.7844,-0.7826,-0.7823,-0.7825,-0.7824,-0.7836,-0.7838,-0.7842,-0.7863,-0.7863,-0.7846,-0.7846,-0.7847,-0.7847,0,0,0,0,0,0,0,-0.7797,-0.78,-0.7825,-0.7818,-0.7818,-0.7816,-0.7817,-0.7831,-0.7833,-0.7823,-0.7822,-0.7824,-0.7836,-0.7841,-0.7842,-0.7864,-0.7846,-0.7847,-0.7847,-0.7848,-0.7902,-0.7902,0,0,0,0,0,0,-0.7796,-0.7799,-0.7825,-0.7826,-0.7806,-0.7817,-0.7818,-0.7825,-0.7833,-0.7833,-0.7825,-0.7824,-0.7839,-0.7841,-0.7843,-0.7867,-0.7847,-0.7848,-0.7849,-0.7901,-0.7902,-0.7903,0,0,0,0,0,0,-0.7796,-0.7799,-0.7824,-0.7812,-0.7815,-0.7818,-0.7826,-0.7826,-0.783,-0.7834,-0.7835,-0.7829,-0.7839,-0.7841,-0.7857,-0.7867,-0.7849,-0.785,-0.79,-0.7901,-0.7902,-0.7915,0,0,0,0,0,0,-0.7795,-0.7799,-0.7806,-0.7813,-0.7816,-0.7838,-0.7826,-0.7826,-0.7832,-0.7831,-0.7838,-0.7839,-0.7838,-0.7856,-0.7859,-0.7868,-0.7851,-0.7899,-0.7901,-0.7902,-0.7913,-0.7916,-0.7918,0,0,0,0,0,-0.7793,-0.7809,-0.7807,-0.781,-0.7826,-0.7839,-0.7841,-0.784,-0.7833,-0.7841,-0.7843,-0.7839,-0.7866,-0.7857,-0.7861,-0.7871,-0.7899,-0.79,-0.7902,-0.7912,-0.7915,-0.7918,0,0,0,0,0,0,-0.7804,-0.781,-0.7807,-0.7825,-0.7832,-0.7838,-0.7847,-0.7844,-0.7852,-0.7851,-0.785,-0.7851,-0.7868,-0.7871,-0.7862,-0.7891,-0.7881,-0.7883,-0.7888,-0.7891,-0.7893,-0.7892,-0.7852,0,0,0,0,0,-0.7808,-0.7819,-0.7823,-0.7839,-0.7842,-0.7844,-0.785,-0.7849,-0.7856,-0.7858,-0.7862,-0.7869,-0.7879,-0.7885,-0.7895,-0.7914,-0.7915,-0.7923,-0.7925,-0.7927,-0.7929,-0.7939,-0.7943,-0.7908,-0.7908,-0.7908,0,0,-0.7817,-0.7822,-0.7829,-0.7841,-0.7846,-0.7857,-0.7847,-0.7858,-0.7866,-0.786,-0.7875,-0.7878,-0.7886,-0.7903,-0.7912,-0.7907,-0.7939,-0.7929,-0.7931,-0.7932,-0.7941,-0.7945,-0.7947,-0.7909,-0.7909,-0.7908,0,0,-0.7839,-0.7844,-0.7857,-0.7862,-0.787,-0.7871,-0.7874,-0.7881,-0.7883,-0.7898,-0.7893,-0.7903,-0.792,-0.7926,-0.7931,-0.7955,-0.7951,-0.7959,-0.7971,-0.7981,-0.7984,-0.7986,-0.7994,-0.7997,-0.796,-0.796,-0.796,0,-0.785,-0.7865,-0.7865,-0.7877,-0.7882,-0.7877,-0.7891,-0.7896,-0.7906,-0.791,-0.7905,-0.7926,-0.7931,-0.795,-0.7956,-0.796,-0.7964,-0.7957,-0.7983,-0.7986,-0.7988,-0.7996,-0.7999,-0.7961,-0.7961,-0.7961,-0.7961,0,-0.7877,-0.7889,-0.7898,-0.7908,-0.7915,-0.7928,-0.7929,-0.7936,-0.7935,-0.7937,-0.7952,-0.7958,-0.7968,-0.7973,-0.7972,-0.7992,-0.7988,-0.7983,-0.7973,-0.7992,-0.7999,-0.8002,-0.7962,-0.7962,-0.7962,-0.7962,0,0,-0.7905,-0.7915,-0.7918,-0.7923,-0.7931,-0.7939,-0.7952,-0.7962,-0.7968,-0.7976,-0.7986,-0.8001,-0.7996,-0.8002,-0.8002,-0.8011,-0.8029,-0.8004,-0.8004,-0.8008,-0.8051,-0.8054,-0.8058,-0.8027,-0.8027,-0.8028,-0.805,0,-0.7927,-0.7949,-0.7949,-0.7969,-0.7979,-0.7975,-0.7986,-0.7992,-0.7994,-0.8003,-0.8006,-0.8017,-0.801,-0.8013,-0.8022,-0.8025,-0.8037,-0.8023,-0.8036,-0.8036,-0.8033,-0.8061,-0.8065,-0.8085,-0.8053,-0.8053,-0.8054,0,-0.7955,-0.7963,-0.7984,-0.7991,-0.7995,-0.8005,-0.8014,-0.8023,-0.803,-0.8031,-0.8038,-0.8036,-0.8049,-0.804,-0.8057,-0.8048,-0.8053,-0.8056,-0.8056,-0.8057,-0.8046,-0.8062,-0.8092,-0.8095,-0.8058,-0.8058,-0.8058,0,-0.7972,-0.7989,-0.8003,-0.8007,-0.8016,-0.8023,-0.8026,-0.8033,-0.8039,-0.8047,-0.8051,-0.8061,-0.8067,-0.8074,-0.8075,-0.8068,-0.8093,-0.8084,-0.8094,-0.8094,-0.8099,-0.8098,-0.8129,-0.8104,-0.8104,-0.8104,-0.8103,0,-0.7996,-0.8009,-0.8011,-0.802,-0.8035,-0.8035,-0.8049,-0.8052,-0.8058,-0.8068,-0.8065,-0.8074,-0.8075,-0.8085,-0.8086,-0.81,-0.8103,-0.8104,-0.8104,-0.8104,-0.8103,-0.8106,-0.8105,-0.8104,-0.8104,-0.8104,-0.8104,0,-0.8017,-0.802,-0.8035,-0.8042,-0.8044,-0.8054,-0.806,-0.8068,-0.8071,-0.8083,-0.8086,-0.8089,-0.81,-0.8102,-0.8115,-0.8116,-0.8133,-0.8132,-0.813,-0.813,-0.814,-0.8139,-0.8173,-0.8178,-0.815,-0.815,-0.8151,0,-0.8032,-0.8042,-0.8049,-0.8056,-0.806,-0.807,-0.8076,-0.8077,-0.8083,-0.8092,-0.81,-0.8111,-0.8119,-0.8137,-0.8141,-0.8151,-0.815,-0.8161,-0.8151,-0.815,-0.8149,-0.8148,-0.8149,-0.8163,-0.8163,-0.8163,-0.8163,0,-0.8057,-0.8058,-0.8067,-0.8076,-0.8084,-0.8091,-0.8098,-0.8104,-0.8106,-0.8113,-0.8124,-0.8131,-0.8144,-0.8155,-0.8165,-0.8169,-0.8166,-0.8167,-0.817,-0.8169,-0.8167,-0.8168,-0.8135,-0.8166,-0.8165,-0.8165,-0.8165,-0.8165,-0.8075,-0.8084,-0.809,-0.81,-0.8106,-0.8113,-0.8121,-0.8124,-0.8134,-0.8144,-0.8144,-0.8157,-0.8164,-0.8177,-0.8182,-0.8191,-0.8188,-0.8192,-0.8193,-0.8194,-0.8194,-0.8167,-0.8193,-0.8193,-0.8193,-0.8193,-0.8193,0,-0.81,-0.8104,-0.8113,-0.8123,-0.8131,-0.8129,-0.8136,-0.8143,-0.8154,-0.8161,-0.8169,-0.8182,-0.8192,-0.8197,-0.8208,-0.8214,-0.8213,-0.8217,-0.8216,-0.8217,-0.8197,-0.8193,-0.8218,-0.8217,-0.8217,-0.8217,-0.8217,-0.8217,-0.8113,-0.8127,-0.8129,-0.8145,-0.815,-0.8161,-0.8166,-0.8172,-0.8178,-0.8192,-0.8201,-0.8204,-0.821,-0.8221,-0.823,-0.8231,-0.8235,-0.8239,-0.824,-0.8221,-0.8218,-0.8216,-0.8212,-0.824,-0.824,-0.8258,-0.8259,-0.8259]}]]